Location: Falniów
(50.3639°N, 19.9642°E)
Time: 12:35:44
(UTC+00:00)

Cosmos 2082 Rocket - Pass Details

Date: 19 April 2026
Orbit: 831 x 853 km, 71.0° (Epoch: 19 May)

Event Time Altitude Azimuth Distance (km) Brightness Sun altitude
Exits shadow 00:01:57 47° 133° (SE) 1,123 2.6 -25.9°
Maximum altitude 00:02:36 49° 111° (ESE) 1,091 2.7 -25.9°
Drops below altitude 10° 00:08:06 10° 38° (NE) 2,493 5.6 -25.5°
Sets 00:10:37 0° 33° (NNE) 3,433 6.7 -25.4°
